カタログに戻る

FENGYUN 1C DEB

運用中SSO
NORAD 30481·DEBRIS·🇨🇳 China

打ち上げ May 10, 1999 から Taiyuan Satellite Launch Center

Loading…

次のパス (今後24時間)

TLE

最新Source: Space-Track

元期: Sep 14, 2026, 19:22 UTC

1 30481U 99025AGT 26257.80749358  .00000873  00000-0  21908-3 0  9998
2 30481  98.3249 272.6871 0222226 148.8048  24.8889 14.39968874 24470

AllMySatでFENGYUN 1C DEBをリアルタイム追跡

Download on the App Store